| time (UTC) | temp F | wind direction | speed MPH | gust MPH | rain 1hr in | rain 24hr in | rain mn in | humidity % | barometer mb |
| 20260505053047 | 60 | 182 | 0.0 | 3.0 | 0.00 | 0.00 | 0.00 | 67 | 1007.9 |
| 20260505051558 | 61 | 183 | 0.0 | 3.0 | 0.00 | 0.00 | 0.00 | 65 | 1008.1 |
| 20260505041545 | 60 | 0 | 0.0 | 6.0 | 0.00 | 0.00 | 0.00 | 67 | 1008.1 |
| 20260505040045 | 60 | 0 | 0.0 | 3.0 | 0.00 | 0.00 | 0.00 | 68 | 1008.2 |
| 20260505034542 | 59 | 0 | 0.0 | 2.0 | 0.00 | 0.00 | 0.00 | 69 | 1008.2 |
| 20260505033043 | 59 | 0 | 0.0 | 1.0 | 0.00 | 0.00 | 0.00 | 70 | 1007.8 |
| 20260505031553 | 59 | 0 | 0.0 | 1.0 | 0.00 | 0.00 | 0.00 | 71 | 1007.9 |
| 20260505030045 | 59 | 0 | 0.0 | 1.0 | 0.00 | 0.00 | 0.00 | 72 | 1007.9 |
| 20260505024552 | 60 | 0 | 0.0 | 2.0 | 0.00 | 0.00 | 0.00 | 73 | 1007.9 |
| 20260505023050 | 60 | 0 | 0.0 | 1.0 | 0.00 | 0.00 | 0.00 | 72 | 1007.9 |
| 20260505021542 | 61 | 0 | 0.0 | 1.0 | 0.00 | 0.00 | 0.00 | 69 | 1007.9 |
| 20260505020041 | 62 | 0 | 1.0 | 5.0 | 0.00 | 0.00 | 0.00 | 67 | 1007.9 |
| 20260505014548 | 63 | 0 | 0.0 | 3.0 | 0.00 | 0.00 | 0.00 | 64 | 1008.1 |
| 20260505013101 | 65 | 190 | 0.0 | 19.0 | 0.00 | 0.00 | 0.00 | 62 | 1007.8 |
| 20260505011544 | 66 | 285 | 0.0 | 8.0 | 0.00 | 0.00 | 0.00 | 51 | 1007.9 |
| 20260505010053 | 66 | 0 | 0.0 | 2.0 | 0.00 | 0.00 | 0.00 | 50 | 1007.4 |
| 20260505004543 | 67 | 0 | 0.0 | 3.0 | 0.00 | 0.00 | 0.00 | 49 | 1007.2 |
| 20260505003047 | 68 | 0 | 0.0 | 3.0 | 0.00 | 0.00 | 0.00 | 49 | 1007.3 |
| 20260505001548 | 68 | 0 | 0.0 | 7.0 | 0.00 | 0.00 | 0.00 | 48 | 1007.1 |
| 20260505000057 | 69 | 215 | 0.0 | 6.0 | 0.00 | 0.00 | 0.00 | 46 | 1007.0 |
| 20260504234547 | 70 | 218 | 2.0 | 7.0 | 0.00 | 0.00 | 0.00 | 45 | 1006.8 |
| 20260504233046 | 70 | 264 | 1.0 | 8.0 | 0.00 | 0.00 | 0.00 | 45 | 1006.7 |
| 20260504231543 | 71 | 211 | 1.0 | 9.0 | 0.00 | 0.00 | 0.00 | 45 | 1006.6 |
| 20260504230051 | 72 | 153 | 2.0 | 12.0 | 0.00 | 0.00 | 0.00 | 44 | 1006.6 |
| 20260504224546 | 72 | 178 | 2.0 | 11.0 | 0.00 | 0.00 | 0.00 | 43 | 1006.4 |
| 20260504223052 | 72 | 169 | 2.0 | 15.0 | 0.00 | 0.00 | 0.00 | 43 | 1006.4 |
| 20260504221543 | 72 | 274 | 3.0 | 14.0 | 0.00 | 0.00 | 0.00 | 43 | 1006.4 |
| 20260504220048 | 73 | 211 | 3.0 | 16.0 | 0.00 | 0.00 | 0.00 | 42 | 1006.3 |
| 20260504214547 | 73 | 207 | 4.0 | 19.0 | 0.00 | 0.00 | 0.00 | 40 | 1006.3 |
| 20260504213051 | 74 | 225 | 2.0 | 12.0 | 0.00 | 0.00 | 0.00 | 39 | 1006.3 |
| 20260504211551 | 74 | 174 | 2.0 | 16.0 | 0.00 | 0.00 | 0.00 | 37 | 1006.2 |
| 20260504210044 | 74 | 0 | 2.0 | 15.0 | 0.00 | 0.00 | 0.00 | 36 | 1006.4 |
| 20260504204544 | 75 | 178 | 4.0 | 17.0 | 0.00 | 0.00 | 0.00 | 33 | 1006.4 |
| 20260504203046 | 75 | 251 | 4.0 | 14.0 | 0.00 | 0.00 | 0.00 | 35 | 1006.6 |
| 20260504201557 | 75 | 269 | 4.0 | 16.0 | 0.00 | 0.00 | 0.00 | 35 | 1006.7 |
| 20260504200048 | 75 | 186 | 4.0 | 16.0 | 0.00 | 0.00 | 0.00 | 34 | 1006.9 |
| 20260504194550 | 74 | 171 | 1.0 | 10.0 | 0.00 | 0.00 | 0.00 | 34 | 1007.3 |
| 20260504193045 | 74 | 213 | 5.0 | 21.0 | 0.00 | 0.00 | 0.00 | 33 | 1007.5 |
| 20260504191554 | 74 | 164 | 4.0 | 12.0 | 0.00 | 0.00 | 0.00 | 35 | 1007.5 |
| 20260504190047 | 73 | 259 | 7.0 | 19.0 | 0.00 | 0.00 | 0.00 | 36 | 1007.9 |
| 20260504184553 | 73 | 263 | 3.0 | 14.0 | 0.00 | 0.00 | 0.00 | 38 | 1007.9 |
| 20260504183045 | 72 | 153 | 3.0 | 18.0 | 0.00 | 0.00 | 0.00 | 38 | 1008.4 |
| 20260504181544 | 72 | 261 | 6.0 | 15.0 | 0.00 | 0.00 | 0.00 | 37 | 1008.5 |
| 20260504180047 | 72 | 208 | 3.0 | 14.0 | 0.00 | 0.00 | 0.00 | 39 | 1008.5 |
| 20260504174545 | 72 | 252 | 4.0 | 12.0 | 0.00 | 0.00 | 0.00 | 39 | 1008.8 |
| 20260504173039 | 71 | 201 | 5.0 | 18.0 | 0.00 | 0.00 | 0.00 | 41 | 1009.1 |
| 20260504171547 | 70 | 108 | 3.0 | 16.0 | 0.00 | 0.00 | 0.00 | 41 | 1009.3 |
| 20260504081545 | 42 | 0 | 0.0 | 1.0 | 0.00 | 0.00 | 0.00 | 67 | 1012.3 |